This is the latest recevied weather packets stored in our database for station/object W0WC. If no packets are shown the sender has not sent any weather packets the latest 10 day(s).
| Time | Temp. | Humidity | Pressure | Rain* | Wind** | Luminosity | Snow |
|---|---|---|---|---|---|---|---|
| 1788677010 | 28.89° C | 58% | 1014 hPa | 0 mm | - | 0 W/m² | - |
| 1788676704 | 28.89° C | 56% | 1014 hPa | 0 mm | - | 0 W/m² | - |
| 1788676400 | 29.44° C | 55% | 1014 hPa | 0 mm | - | 0 W/m² | - |
| 1788676095 | 29.44° C | 55% | 1014.2 hPa | 0 mm | - | 0 W/m² | - |
| 1788675794 | 29.44° C | 55% | 1014 hPa | 0 mm | - | 0 W/m² | - |
| 1788675490 | 29.44° C | 54% | 1014.1 hPa | 0 mm | - | 0 W/m² | - |
| 1788675186 | 29.44° C | 54% | 1013.9 hPa | 0 mm | - | 0 W/m² | - |
| 1788674881 | 29.44° C | 54% | 1014.1 hPa | 0 mm | - | 0 W/m² | - |
| 1788674578 | 29.44° C | 55% | 1014.2 hPa | 0 mm | - | 0 W/m² | - |
| 1788674274 | 29.44° C | 54% | 1014.1 hPa | 0 mm | - | 0 W/m² | - |
| 1788673969 | 28.89° C | 56% | 1014.1 hPa | 0 mm | - | 0 W/m² | - |
| 1788673664 | 29.44° C | 57% | 1014 hPa | 0 mm | - | 0 W/m² | - |
| 1788673359 | 29.44° C | 56% | 1013.9 hPa | 0 mm | - | 0 W/m² | - |
| 1788673056 | 29.44° C | 57% | 1014 hPa | 0 mm | - | 0 W/m² | - |
| 1788672752 | 29.44° C | 56% | 1014.1 hPa | 0 mm | - | 0 W/m² | - |
| 1788672446 | 30° C | 56% | 1014.1 hPa | 0 mm | - | 0 W/m² | - |
| 1788672143 | 30° C | 57% | 1014.1 hPa | 0 mm | - | 0 W/m² | - |
| 1788671840 | 30° C | 56% | 1014 hPa | 0 mm | - | 0 W/m² | - |
| 1788671539 | 30° C | 56% | 1014.2 hPa | 0 mm | - | 0 W/m² | - |
| 1788671234 | 29.44° C | 58% | 1014.4 hPa | 0 mm | - | 0 W/m² | - |
| 1788670929 | 28.89° C | 61% | 1014.2 hPa | 0 mm | - | 0 W/m² | - |
| 1788670628 | 28.89° C | 61% | 1014.2 hPa | 0 mm | - | 0 W/m² | - |
| 1788670323 | 29.44° C | 61% | 1013.9 hPa | 0 mm | - | 0 W/m² | - |
| 1788670019 | 29.44° C | 60% | 1014 hPa | 0 mm | - | 0 W/m² | - |
| 1788669714 | 29.44° C | 60% | 1014 hPa | 0 mm | - | 0 W/m² | - |
* Rain latest hour (hover to see other rain measurements)
** Current wind speed in m/s (hover to see current wind gust speed)